When you browse on this site, cookies collect data to enhance your experience and personalize the content and advertising you see.
Visit our Privacy Policy to learn more. By continuing to use the site, you agree to this use of cookies and data.
  • In Hungary
  • List of Countries
  • For 7 days
  • Water Temperature
  • Weather Map
  • News
  • Weather Widgets
  • user-avatar
    Login

    Hourly Weather Chorna

    Today, 24 August, Saturday

    Time Temperature Precipitation Wind Pressure Humidity
    00:00 +16°C° 0 mm 2 mps 742 mmHg 81%
    01:00 +16°C° 0 mm 2 mps 742 mmHg 82%
    02:00 +15°C° 0 mm 2 mps 743 mmHg 82%
    03:00 +15°C° 0 mm 2 mps 742 mmHg 83%
    04:00 +15°C° 0 mm 2 mps 742 mmHg 85%
    05:00 +14°C° 0 mm 2 mps 742 mmHg 86%
    06:00 +16°C° 0 mm 2 mps 742 mmHg 81%
    07:00 +17°C° 0 mm 2 mps 742 mmHg 76%
    08:00 +19°C° 0 mm 3 mps 743 mmHg 70%
    09:00 +21°C° 0 mm 3 mps 743 mmHg 63%
    10:00 +22°C° 0 mm 3 mps 743 mmHg 57%
    11:00 +25°C° 0 mm 3 mps 743 mmHg 50%
    12:00 +26°C° 0 mm 3 mps 742 mmHg 48%
    13:00 +27°C° 0 mm 3 mps 742 mmHg 46%
    14:00 +27°C° 0 mm 2 mps 742 mmHg 44%
    15:00 +27°C° 0 mm 2 mps 742 mmHg 46%
    16:00 +27°C° 0 mm 3 mps 742 mmHg 47%
    17:00 +27°C° 0 mm 3 mps 741 mmHg 49%
    18:00 +25°C° 0 mm 3 mps 741 mmHg 56%
    19:00 +22°C° 0 mm 3 mps 741 mmHg 62%
    20:00 +20°C° 0 mm 3 mps 741 mmHg 68%
    21:00 +19°C° 0 mm 3 mps 741 mmHg 70%
    22:00 +19°C° 0 mm 3 mps 741 mmHg 72%
    23:00 +18°C° 0 mm 3 mps 741 mmHg 74%

    Tomorrow, 25 August, Sunday

    Time Temperature Precipitation Wind Pressure Humidity
    00:00 +18°C° 0 mm 3 mps 741 mmHg 75%
    01:00 +17°C° 0 mm 3 mps 741 mmHg 75%
    02:00 +17°C° 0 mm 3 mps 741 mmHg 76%
    03:00 +17°C° 0 mm 3 mps 741 mmHg 75%
    04:00 +16°C° 0 mm 2 mps 741 mmHg 75%
    05:00 +16°C° 0 mm 2 mps 741 mmHg 74%
    06:00 +17°C° 0 mm 3 mps 741 mmHg 71%
    07:00 +19°C° 0 mm 3 mps 741 mmHg 67%
    08:00 +20°C° 0 mm 3 mps 742 mmHg 64%
    09:00 +22°C° 0 mm 3 mps 742 mmHg 60%
    10:00 +25°C° 0 mm 3 mps 742 mmHg 56%
    11:00 +27°C° 0 mm 3 mps 742 mmHg 52%
    12:00 +28°C° 0 mm 3 mps 742 mmHg 50%
    13:00 +28°C° 0 mm 3 mps 742 mmHg 47%
    14:00 +29°C° 0 mm 3 mps 741 mmHg 45%
    15:00 +29°C° 0 mm 3 mps 741 mmHg 46%
    16:00 +29°C° 0 mm 4 mps 741 mmHg 47%
    17:00 +28°C° 0 mm 4 mps 741 mmHg 48%
    18:00 +26°C° 0 mm 4 mps 741 mmHg 52%
    19:00 +25°C° 0 mm 5 mps 741 mmHg 56%
    20:00 +22°C° 0 mm 5 mps 741 mmHg 60%
    21:00 +21°C° 0 mm 5 mps 741 mmHg 59%
    22:00 +20°C° 0 mm 4 mps 741 mmHg 58%
    23:00 +19°C° 0 mm 4 mps 742 mmHg 57%

    Day after tomorrow, 26 August, Monday

    Time Temperature Precipitation Wind Pressure Humidity
    00:00 +19°C° 0 mm 4 mps 742 mmHg 55%
    01:00 +19°C° 0 mm 3 mps 742 mmHg 53%
    02:00 +19°C° 0 mm 3 mps 742 mmHg 51%
    03:00 +18°C° 0 mm 3 mps 741 mmHg 52%
    04:00 +17°C° 0 mm 3 mps 741 mmHg 54%
    05:00 +17°C° 0 mm 3 mps 741 mmHg 55%
    06:00 +18°C° 0 mm 3 mps 741 mmHg 54%
    07:00 +19°C° 0 mm 3 mps 741 mmHg 52%
    08:00 +21°C° 0 mm 4 mps 741 mmHg 51%
    09:00 +23°C° 0 mm 4 mps 741 mmHg 47%
    10:00 +26°C° 0 mm 4 mps 742 mmHg 43%
    11:00 +28°C° 0 mm 4 mps 742 mmHg 39%
    12:00 +28°C° 0 mm 4 mps 741 mmHg 38%
    13:00 +29°C° 0 mm 4 mps 741 mmHg 37%
    14:00 +30°C° 0 mm 4 mps 741 mmHg 36%
    15:00 +29°C° 0 mm 4 mps 741 mmHg 37%
    16:00 +29°C° 0 mm 4 mps 740 mmHg 37%
    17:00 +29°C° 0 mm 3 mps 740 mmHg 38%
    18:00 +27°C° 0 mm 3 mps 740 mmHg 42%
    19:00 +25°C° 0 mm 3 mps 740 mmHg 46%
    20:00 +21°C° 0 mm 3 mps 740 mmHg 50%
    21:00 +21°C° 0 mm 3 mps 740 mmHg 52%
    22:00 +20°C° 0 mm 3 mps 740 mmHg 55%
    23:00 +19°C° 0 mm 3 mps 740 mmHg 57%

    27 August, Tuesday

    Time Temperature Precipitation Wind Pressure Humidity
    00:00 +19°C° 0 mm 3 mps 740 mmHg 61%
    01:00 +18°C° 0 mm 3 mps 740 mmHg 65%
    02:00 +18°C° 0 mm 3 mps 740 mmHg 69%
    03:00 +17°C° 0 mm 3 mps 740 mmHg 70%
    04:00 +17°C° 0 mm 3 mps 740 mmHg 72%
    05:00 +17°C° 0 mm 3 mps 740 mmHg 73%
    06:00 +18°C° 0 mm 3 mps 740 mmHg 69%
    07:00 +20°C° 0 mm 3 mps 740 mmHg 64%
    08:00 +21°C° 0 mm 3 mps 740 mmHg 60%
    09:00 +24°C° 0 mm 3 mps 740 mmHg 54%
    10:00 +26°C° 0 mm 3 mps 740 mmHg 48%
    11:00 +28°C° 0 mm 3 mps 740 mmHg 42%
    12:00 +29°C° 0 mm 3 mps 740 mmHg 39%
    13:00 +30°C° 0 mm 3 mps 740 mmHg 36%
    14:00 +31°C° 0 mm 2 mps 740 mmHg 33%
    15:00 +30°C° 0 mm 2 mps 740 mmHg 34%
    16:00 +30°C° 0 mm 2 mps 739 mmHg 35%
    17:00 +30°C° 0 mm 2 mps 739 mmHg 36%
    18:00 +28°C° 0 mm 3 mps 739 mmHg 43%
    19:00 +25°C° 0 mm 3 mps 739 mmHg 49%
    20:00 +22°C° 0 mm 4 mps 739 mmHg 56%
    21:00 +21°C° 0 mm 4 mps 740 mmHg 58%
    22:00 +21°C° 0 mm 4 mps 740 mmHg 60%
    23:00 +20°C° 0 mm 4 mps 740 mmHg 62%

    28 August, Wednesday

    Time Temperature Precipitation Wind Pressure Humidity
    00:00 +19°C° 0 mm 3 mps 740 mmHg 64%
    01:00 +19°C° 0 mm 3 mps 740 mmHg 65%
    02:00 +18°C° 0 mm 2 mps 740 mmHg 66%
    03:00 +18°C° 0 mm 2 mps 740 mmHg 66%
    04:00 +17°C° 0 mm 2 mps 740 mmHg 67%
    05:00 +17°C° 0 mm 2 mps 740 mmHg 67%
    06:00 +18°C° 0 mm 2 mps 740 mmHg 64%
    07:00 +20°C° 0 mm 3 mps 740 mmHg 60%
    08:00 +21°C° 0 mm 3 mps 740 mmHg 57%
    09:00 +24°C° 0 mm 3 mps 740 mmHg 51%
    10:00 +26°C° 0 mm 3 mps 740 mmHg 46%
    11:00 +28°C° 0 mm 3 mps 740 mmHg 40%
    12:00 +29°C° 0 mm 3 mps 739 mmHg 38%
    13:00 +29°C° 0 mm 3 mps 739 mmHg 37%
    14:00 +30°C° 0 mm 3 mps 739 mmHg 35%
    15:00 +30°C° 0 mm 3 mps 739 mmHg 36%
    16:00 +29°C° 0 mm 3 mps 738 mmHg 38%
    17:00 +29°C° 0 mm 3 mps 738 mmHg 39%
    18:00 +27°C° 0 mm 4 mps 738 mmHg 45%
    19:00 +25°C° 0 mm 4 mps 738 mmHg 51%
    20:00 +21°C° 0 mm 4 mps 738 mmHg 57%
    21:00 +21°C° 0 mm 4 mps 738 mmHg 61%
    22:00 +20°C° 0 mm 5 mps 738 mmHg 64%
    23:00 +20°C° 0 mm 5 mps 738 mmHg 68%

    29 August, Thursday

    Time Temperature Precipitation Wind Pressure Humidity
    00:00 +19°C° 0 mm 4 mps 738 mmHg 69%
    01:00 +18°C° 0 mm 4 mps 738 mmHg 70%
    02:00 +17°C° 0 mm 3 mps 738 mmHg 71%
    03:00 +17°C° 0 mm 3 mps 738 mmHg 68%
    04:00 +15°C° 0 mm 4 mps 738 mmHg 66%
    05:00 +15°C° 0 mm 4 mps 738 mmHg 64%
    06:00 +17°C° 0 mm 4 mps 738 mmHg 62%
    07:00 +18°C° 0 mm 4 mps 738 mmHg 59%
    08:00 +19°C° 0 mm 5 mps 738 mmHg 57%
    09:00 +21°C° 0 mm 5 mps 738 mmHg 52%
    10:00 +23°C° 0 mm 5 mps 738 mmHg 48%
    11:00 +26°C° 0 mm 5 mps 739 mmHg 44%
    12:00 +26°C° 0 mm 5 mps 738 mmHg 42%
    13:00 +27°C° 0 mm 5 mps 738 mmHg 41%
    14:00 +28°C° 0 mm 5 mps 738 mmHg 39%
    15:00 +27°C° 0 mm 5 mps 738 mmHg 40%
    16:00 +27°C° 0 mm 5 mps 738 mmHg 41%
    17:00 +26°C° 0 mm 5 mps 737 mmHg 42%
    18:00 +23°C° 0 mm 5 mps 738 mmHg 43%
    19:00 +21°C° 0 mm 5 mps 738 mmHg 45%
    20:00 +19°C° 0 mm 5 mps 738 mmHg 47%
    21:00 +19°C° 0 mm 5 mps 738 mmHg 44%
    22:00 +17°C° 0 mm 5 mps 738 mmHg 42%
    23:00 +16°C° 0 mm 5 mps 739 mmHg 39%
    Show more